| time (UTC) | temp F | wind direction | speed MPH | gust MPH | rain 1hr in | rain 24hr in | rain mn in | humidity % | barometer mb |
| 20260503191507 | 86 | 238 | 10.0 | 22.0 | 0.00 | 0.00 | 0.00 | 18 | 1008.8 |
| 20260503190010 | 86 | 239 | 12.0 | 24.0 | 0.00 | 0.00 | 0.00 | 18 | 1008.9 |
| 20260503184512 | 86 | 239 | 10.0 | 21.0 | 0.00 | 0.00 | 0.00 | 19 | 1009.2 |
| 20260503183005 | 86 | 263 | 12.0 | 21.0 | 0.00 | 0.00 | 0.00 | 18 | 1009.4 |
| 20260503181505 | 85 | 236 | 11.0 | 20.0 | 0.00 | 0.00 | 0.00 | 17 | 1010.0 |
| 20260503180004 | 85 | 244 | 11.0 | 25.0 | 0.00 | 0.00 | 0.00 | 17 | 1010.1 |
| 20260503174504 | 85 | 246 | 11.0 | 21.0 | 0.00 | 0.00 | 0.00 | 19 | 1010.4 |
| 20260503173101 | 85 | 234 | 9.0 | 26.0 | 0.00 | 0.00 | 0.00 | 21 | 1010.7 |
| 20260503171613 | 85 | 246 | 11.0 | 20.0 | 0.00 | 0.00 | 0.00 | 18 | 1011.1 |
| 20260503170105 | 84 | 265 | 9.0 | 15.0 | 0.00 | 0.00 | 0.00 | 22 | 1011.2 |
| 20260503081515 | 45 | 192 | 1.0 | 2.0 | 0.00 | 0.00 | 0.00 | 71 | 1014.8 |
| 20260503071509 | 47 | 193 | 5.0 | 7.0 | 0.00 | 0.00 | 0.00 | 66 | 1015.1 |
| 20260503060104 | 47 | 178 | 5.0 | 7.0 | 0.00 | 0.00 | 0.00 | 59 | 1015.6 |
| 20260503054602 | 47 | 184 | 4.0 | 5.0 | 0.00 | 0.00 | 0.00 | 58 | 1015.6 |
| 20260503053056 | 47 | 169 | 5.0 | 6.0 | 0.00 | 0.00 | 0.00 | 57 | 1015.8 |
| 20260503051554 | 47 | 173 | 5.0 | 7.0 | 0.00 | 0.00 | 0.00 | 57 | 1015.9 |
| 20260503050053 | 48 | 175 | 5.0 | 6.0 | 0.00 | 0.00 | 0.00 | 56 | 1016.0 |
| 20260503044555 | 49 | 172 | 4.0 | 6.0 | 0.00 | 0.00 | 0.00 | 54 | 1016.1 |
| 20260503043053 | 49 | 177 | 5.0 | 6.0 | 0.00 | 0.00 | 0.00 | 53 | 1016.1 |
| 20260503041551 | 49 | 178 | 4.0 | 6.0 | 0.00 | 0.00 | 0.00 | 53 | 1016.1 |
| 20260503040052 | 49 | 175 | 4.0 | 6.0 | 0.00 | 0.00 | 0.00 | 52 | 1016.3 |
| 20260503034551 | 50 | 182 | 4.0 | 5.0 | 0.00 | 0.00 | 0.00 | 50 | 1016.3 |
| 20260503033050 | 51 | 175 | 4.0 | 5.0 | 0.00 | 0.00 | 0.00 | 48 | 1016.2 |
| 20260503031550 | 53 | 174 | 3.0 | 4.0 | 0.00 | 0.00 | 0.00 | 47 | 1016.1 |
| 20260503030049 | 54 | 162 | 2.0 | 5.0 | 0.00 | 0.00 | 0.00 | 45 | 1016.1 |
| 20260503024549 | 56 | 161 | 2.0 | 4.0 | 0.00 | 0.00 | 0.00 | 42 | 1016.0 |
| 20260503023052 | 57 | 162 | 2.0 | 5.0 | 0.00 | 0.00 | 0.00 | 40 | 1016.0 |
| 20260503021555 | 58 | 159 | 2.0 | 4.0 | 0.00 | 0.00 | 0.00 | 37 | 1015.7 |
| 20260503020053 | 60 | 173 | 4.0 | 4.0 | 0.00 | 0.00 | 0.00 | 35 | 1015.5 |
| 20260503014548 | 62 | 169 | 1.0 | 2.0 | 0.00 | 0.00 | 0.00 | 33 | 1015.6 |
| 20260503013046 | 64 | 180 | 0.0 | 0.0 | 0.00 | 0.00 | 0.00 | 32 | 1015.6 |
| 20260503011553 | 66 | 180 | 0.0 | 2.0 | 0.00 | 0.00 | 0.00 | 31 | 1015.6 |
| 20260503010045 | 69 | 204 | 0.0 | 0.0 | 0.00 | 0.00 | 0.00 | 28 | 1015.6 |
| 20260503004547 | 72 | 204 | 0.0 | 1.0 | 0.00 | 0.00 | 0.00 | 25 | 1015.8 |
| 20260503003042 | 72 | 213 | 0.0 | 1.0 | 0.00 | 0.00 | 0.00 | 25 | 1016.0 |
| 20260503001541 | 71 | 242 | 0.0 | 2.0 | 0.00 | 0.00 | 0.00 | 25 | 1016.2 |
| 20260503000056 | 71 | 272 | 2.0 | 6.0 | 0.00 | 0.00 | 0.00 | 22 | 1016.2 |
| 20260502234539 | 72 | 268 | 3.0 | 6.0 | 0.00 | 0.00 | 0.00 | 22 | 1016.3 |
| 20260502233039 | 72 | 239 | 1.0 | 5.0 | 0.00 | 0.00 | 0.00 | 21 | 1016.6 |
| 20260502231539 | 72 | 243 | 2.0 | 7.0 | 0.00 | 0.00 | 0.00 | 21 | 1016.7 |
| 20260502230037 | 72 | 260 | 3.0 | 8.0 | 0.00 | 0.00 | 0.00 | 21 | 1016.8 |
| 20260502224536 | 71 | 238 | 2.0 | 6.0 | 0.00 | 0.00 | 0.00 | 21 | 1016.8 |
| 20260502223036 | 71 | 286 | 2.0 | 8.0 | 0.00 | 0.00 | 0.00 | 22 | 1016.9 |
| 20260502221535 | 71 | 300 | 4.0 | 9.0 | 0.00 | 0.00 | 0.00 | 21 | 1017.2 |
| 20260502220042 | 71 | 266 | 5.0 | 14.0 | 0.00 | 0.00 | 0.00 | 21 | 1017.4 |
| 20260502214536 | 72 | 226 | 5.0 | 9.0 | 0.00 | 0.00 | 0.00 | 21 | 1017.4 |
| 20260502213038 | 71 | 259 | 3.0 | 11.0 | 0.00 | 0.00 | 0.00 | 23 | 1017.7 |
| 20260502211535 | 71 | 250 | 4.0 | 10.0 | 0.00 | 0.00 | 0.00 | 24 | 1018.0 |
| 20260502210027 | 70 | 225 | 0.0 | 9.0 | 0.00 | 0.00 | 0.00 | 24 | 1018.4 |
| 20260502204525 | 69 | 63 | 5.0 | 10.0 | 0.00 | 0.00 | 0.00 | 23 | 1018.5 |
| 20260502203022 | 68 | 28 | 0.0 | 6.0 | 0.00 | 0.00 | 0.00 | 27 | 1018.8 |
| 20260502201521 | 68 | 285 | 0.0 | 12.0 | 0.00 | 0.00 | 0.00 | 26 | 1019.0 |
| 20260502200021 | 68 | 348 | 4.0 | 8.0 | 0.00 | 0.00 | 0.00 | 24 | 1019.1 |
| 20260502194519 | 68 | 236 | 1.0 | 6.0 | 0.00 | 0.00 | 0.00 | 32 | 1019.1 |
| 20260502193016 | 66 | 303 | 1.0 | 7.0 | 0.00 | 0.00 | 0.00 | 26 | 1019.5 |